Lynchburg, VA

4:46 PM EST on November 20, 2019 (GMT -0500)
Lynchburg Regional-Glenn

Weather History for KLYH - September, 2019

Change the Weather History Date:

Tuesday, September 3, 2019

  Actual Average Record
Temperature  
Mean Temperature 77 °F 71 °F  
Max Temperature 89 °F 83 °F 96 °F (1930)
Min Temperature 64 °F 60 °F 46 °F (1967)
Degree Days  
Heating Degree Days 0 0  
Month to date heating degree days 0 0  
Since 1 July heating degree days 0 3  
Cooling Degree Days 12 7  
Month to date cooling degree days 37 21  
Year to date cooling degree days 1252 919  
Growing Degree Days 26 (Base 50)    
Moisture  
Dew Point 65 °F    
Average Humidity 72    
Maximum Humidity 100    
Minimum Humidity 43    
Precipitation  
Precipitation 0.00 in 0.13 in 4.72 in (1907)
Month to date precipitation T 0.39  
Year to date precipitation 27.58 28.32  
Snow  
Snow 0.00 in - - ()
Month to date snowfall 0.0  
Since 1 July snowfall 0.0  
Since 1 September snowfall 0.0  
Snow Depth 0.00 in    
Sea Level Pressure  
Sea Level Pressure 30.03 in    
Wind  
Wind Speed 4 mph (NE)    
Max Wind Speed 10 mph    
Max Gust Speed -    
Visibility 10 miles    
Events      
T = Trace of Precipitation, MM = Missing Value Source: NWS Daily Summary

Daily Weather History Graph

Daily Weather History Graph

Search for Another Location

Airport or City:

Astronomy

Sep. 03, 2019 Rise Set
Actual Time 6:48 AM EDT 7:43 PM EDT
Civil Twilight 6:22 AM EDT 8:09 PM EDT
Nautical Twilight 5:50 AM EDT 8:41 PM EDT
Astronomical Twilight 5:17 AM EDT 9:13 PM EDT
Moon 11:33 AM EDT (9/3) 10:45 PM EDT (9/3)
Length of Visible Light 13h 47m
Length of Day
12h 54m
Waxing Crescent, 24% of the Moon is Illuminated
Sep 3
Waxing Crescent
Sep 5
First Quarter
Sep 14
Full
Sep 21
Last Quarter
Sep 28
New

Hourly Weather History & Observations

Time (EDT) Temp. Heat Index Dew Point Humidity Pressure Visibility Wind Dir Wind Speed Gust Speed Precip Events Conditions
12:54 AM 73.0 °F - 66.0 °F 79% 30.02 in 10.0 mi North 3.5 mph - N/A   Clear
1:54 AM 73.0 °F - 64.9 °F 76% 30.02 in 10.0 mi NNE 8.1 mph - N/A   Clear
2:54 AM 72.0 °F - 66.0 °F 81% 30.00 in 10.0 mi NNE 5.8 mph - N/A   Clear
3:54 AM 70.0 °F - 66.9 °F 90% 30.00 in 10.0 mi Calm Calm - N/A   Clear
4:54 AM 66.9 °F - 66.0 °F 97% 30.01 in 10.0 mi Calm Calm - N/A   Clear
5:54 AM 64.9 °F - 64.9 °F 100% 30.01 in 6.0 mi Calm Calm - N/A   Clear
6:54 AM 64.9 °F - 64.0 °F 97% 30.04 in 7.0 mi Calm Calm - N/A   Clear
7:54 AM 71.1 °F - 66.0 °F 84% 30.07 in 10.0 mi NNE 5.8 mph - N/A   Clear
8:54 AM 75.0 °F - 66.9 °F 76% 30.07 in 10.0 mi NNE 5.8 mph - N/A   Clear
9:54 AM 78.1 °F - 66.0 °F 66% 30.07 in 10.0 mi NNE 10.4 mph - N/A   Clear
10:54 AM 80.1 °F 81.9 °F 64.9 °F 60% 30.07 in 10.0 mi ENE 9.2 mph - N/A   Clear
11:54 AM 82.0 °F 83.4 °F 64.0 °F 54% 30.06 in 10.0 mi ENE 6.9 mph - N/A   Partly Cloudy
12:54 PM 82.0 °F 83.4 °F 64.0 °F 54% 30.05 in 10.0 mi Variable 4.6 mph - N/A   Clear
1:54 PM 84.0 °F 85.4 °F 64.0 °F 51% 30.04 in 10.0 mi East 3.5 mph - N/A   Mostly Cloudy
2:54 PM 88.0 °F 88.7 °F 63.0 °F 43% 30.02 in 10.0 mi Variable 4.6 mph - N/A   Partly Cloudy
3:54 PM 88.0 °F 89.3 °F 64.0 °F 45% 30.02 in 10.0 mi ENE 6.9 mph - N/A   Clear
4:54 PM 88.0 °F 88.7 °F 63.0 °F 43% 30.00 in 10.0 mi Variable 4.6 mph - N/A   Partly Cloudy
5:54 PM 86.0 °F 86.8 °F 63.0 °F 46% 30.01 in 10.0 mi ESE 3.5 mph - N/A   Clear
6:54 PM 84.0 °F 84.9 °F 63.0 °F 49% 30.00 in 10.0 mi East 3.5 mph - N/A   Clear
7:54 PM 75.0 °F - 64.9 °F 71% 30.00 in 10.0 mi Calm Calm - N/A   Clear
8:54 PM 71.1 °F - 64.9 °F 81% 30.00 in 10.0 mi Calm Calm - N/A   Clear
9:54 PM 70.0 °F - 64.0 °F 81% 30.01 in 10.0 mi Calm Calm - N/A   Clear
10:54 PM 68.0 °F - 64.0 °F 87% 30.01 in 10.0 mi Calm Calm - N/A   Clear
11:54 PM 66.9 °F - 64.0 °F 90% 30.01 in 10.0 mi Calm Calm - N/A   Clear